www.pogodaiklimat.ru

Погода и климат >> Архив погоды >> Россия >> Краснодарский край >> Новороссийск


АРХИВ ПОГОДЫ в Новороссийске

Время (UTC), дата Ветер
(напр.,м/с)
 
Видим.   Явления Облачность Т
(С)
Тd
(С)
f
(%)
Тe
(С)
Тes
(С)
Комфортность P
(гПа)
Po
(гПа)
Тmin
(С)
Tmax
(С)
R
(мм)
R24
(мм)
S
(см)
18 12.01 ЮЗ 4 10 км слаб. ливневой дождь 10/10 600 м
[Cb cap]
+7.3 +2.1 70 +4 +4 тепло 1010.9 1009.5
21 12.01 ЮЗ 4 4000 м слаб. ливневой дождь 10/10 300 м
[Cb cap]
+6.3 +3.5 82 +3 +3 по сезону 1009.5 1008.1
00 13.01 З 1 10 км слаб. ливневой дождь 10/10 300 м
[Cb cap]
+5.6 +2.6 81 +4 +4 тепло 1008.5 1007.1
03 13.01 СЗ 1 10 км в посл. час ливневой дождь 10/10 300 м
[Cb cap]
+3.6 +0.9 82 +2 +2 по сезону 1008.1 1006.7 +3.6 8
06 13.01 СВ 1 20 км {ливн. осадки} 10/10 300 м
[Cb cap]
+3.8 -2.8 62 +3 +3 тепло 1009.0 1007.7 +3.4
09 13.01 СЗ 1 20 км 9/0
[Ac As]
+6.2 -1.7 57 +6 +7 тепло 1009.0 1007.6
12 13.01 З 2 20 км 9/0
[Ac und]
+3.7 -1.0 71 +1 +2 по сезону 1009.4 1008.0
15 13.01 З 1 10 км 10/10 600 м
[Sc]
+3.6 -1.6 69 +2 +2 по сезону 1009.2 1007.8 +6.3
18 13.01 СВ 1 10 км 10/10 600 м
[Sc]
+3.0 -1.9 70 +2 +2 по сезону 1008.9 1007.6
21 13.01 штиль 0 10 км 10/10 600 м
[Sc]
+2.7 -1.0 77 +2 +2 по сезону 1008.3 1007.0
00 14.01 штиль 0 10 км 10/10 600 м
[Sc]
+3.4 -1.2 72 +3 +3 тепло 1007.0 1005.6
03 14.01 В 1 10 км слаб. ливневой дождь 10/10 600 м
[Cb cap]
+4.0 +1.8 86 +3 +3 тепло 1005.4 1004.1 +2.5 2
06 14.01 СЗ 2 20 км {ливн. осадки} 10/10 600 м
[Cb calv]
+5.1 +2.8 85 +3 +3 тепло 1005.1 1003.8
09 14.01 ЮЗ 3 20 км слаб. ливневой дождь 10/10 600 м
[Cb cap]
+7.0 +3.1 76 +4 +4 тепло 1004.4 1003.1
12 14.01 Ю 5 4000 м слаб. крупа 10/10 300 м
[Cb cap]
+8.9 +4.9 76 +6 +6 тепло 1002.5 1001.2
15 14.01 ЮЗ 5
{11}
10 км слаб. ливневой дождь 10/10 300 м
[Cb cap]
+9.5 +5.1 74 +6 +6 тепло 1002.6 1001.2 +9.6 2
18 14.01 ЮЗ 5 10 км слаб. ливневой дождь 10/10 300 м
[Cb cap]
+8.0 +4.2 77 +4 +4 тепло 1003.0 1001.6
21 14.01 ЮЗ 6
{11}
10 км {ливн. осадки} 10/10 600 м
[Cb calv]
+9.0 +1.6 60 +6 +6 тепло 1004.0 1002.6
00 15.01 Ю 5
{11}
10 км {ливн. осадки} 10/10 600 м
[Cb calv]
+9.1 +1.5 59 +6 +6 тепло 1003.8 1002.4
03 15.01 ЮЗ 3 10 км 10/0
[Ac trans Cc]
+9.2 +1.4 58 +7 +7 тепло 1003.8 1002.5 +7.7 2
06 15.01 Ю 3 20 км 8/0
[Ac trans Ci fib]
+9.6 +1.9 59 +8 +8 тепло 1003.9 1002.5
09 15.01 Ю 3 20 км 10/10 600 м
[Cb calv]
+10.7 +5.2 69 +9 +9 тепло 1003.8 1002.5
12 15.01 Ю 3-12
{12}
20 км слаб. ливневой дождь 10/10 600 м
[Cb cap]
+10.3 +5.8 74 +8 +8 тепло 1002.5 1001.2
15 15.01 ЮВ 2
{12}
10 км {ливн. осадки} 10/10 600 м
[Cb calv]
+11.0 +5.1 67 +10 +10 тепло 999.9 998.6 +11.0 0.6
18 15.01 Ю 3
{11}
10 км слаб. ливневой дождь 10/10 600 м
[Cb cap]
+10.7 +6.2 74 +9 +9 тепло 999.2 997.9
21 15.01 Ю 2 10 км слаб. ливневой дождь 10/10 600 м
[Cb cap]
+9.2 +7.1 87 +7 +7 тепло 997.0 995.7
00 16.01 В 2 10 км слаб. ливневой дождь 10/10 600 м
[Cb cap]
+9.5 +7.6 88 +8 +8 тепло 994.5 993.2
03 16.01 СВ 6-12
{14}
10 км слаб. ливневой дождь 10/10 600 м
[Cb cap]
+2.2 -1.4 77 -4 -4 по сезону 998.0 996.6 +2.2 26
06 16.01 СЗ 6-12
{14}
10 км слаб. ливневой снег 10/10 600 м
[Cb cap]
+0.9 -3.0 75 -5 -5 по сезону 1005.6 1004.2 +0.8
09 16.01 З 2
{12}
20 км {ливн. осадки} 10/3 600 м
[Sc diur, vesp Ac trans Cs]
+1.7 -4.6 63 -1 0 по сезону 1008.6 1007.2
12 16.01 З 2 20 км {ливн. осадки} 8/3 600 м
[Sc diur, vesp Cs]
+2.4 -5.3 57 -0 +1 по сезону 1010.1 1008.8
15 16.01 СВ 1 10 км 10/0
[As trans]
+1.5 -8.9 46 +1 +1 по сезону 1010.9 1009.5 +2.8 2
18 16.01 СВ 1 10 км 10/0
[Cs]
+0.7 -5.5 63 -1 -1 по сезону 1011.1 1009.7
21 16.01 В 2 10 км 5/0
[Ac trans]
+2.1 -5.3 58 -1 -1 по сезону 1011.2 1009.8
00 17.01 ЮВ 2 10 км 10/0
[Ac und]
+3.7 -3.7 58 +1 +1 по сезону 1012.0 1010.6
03 17.01 В 2 10 км 4/0
[Ci ing]
+3.4 -4.0 58 +1 +1 по сезону 1012.7 1011.3 +0.4
06 17.01 В 2 20 км 6/4 600 м
[Sc Ac trans]
+4.8 -3.1 57 +3 +3 тепло 1014.6 1013.2
09 17.01 Ю 2 20 км 3/3 600 м
[Sc]
+7.5 -2.7 48 +6 +9 тепло 1016.2 1014.8
12 17.01 З 2 20 км 3/3 600 м
[Cu hum]
+8.1 -1.5 51 +7 +8 тепло 1016.9 1015.5
15 17.01 В 3 10 км 4/4 600 м
[Cu Sc]
+5.5 -2.9 55 +3 +3 тепло 1018.9 1017.6 +8.6
18 17.01 штиль 0 10 км 5/5 600 м
[Sc]
+2.9 -1.2 74 +2 +2 по сезону 1020.5 1019.1
21 17.01 штиль 0 10 км 8/8 600 м
[Sc]
+2.5 -0.5 81 +2 +2 по сезону 1021.6 1020.2
00 18.01 ЮЗ 3 10 км 6/6 600 м
[Sc]
+7.4 +0.8 63 +5 +5 тепло 1021.7 1020.3
03 18.01 Ю 3 10 км 8/8 600 м
[Sc]
+7.3 +0.1 60 +5 +5 тепло 1021.1 1019.8 +2.3
06 18.01 Ю 4 20 км 8/8 600 м
[Cu Sc]
+7.5 +0.5 61 +4 +5 тепло 1022.3 1020.9
09 18.01 ЮЗ 4 20 км 9/9 600 м
[Cu Sc]
+7.8 +0.5 60 +5 +5 тепло 1022.8 1021.4
12 18.01 Ю 5
{10}
20 км 9/9 600 м
[Cu Sc]
+7.9 -0.3 56 +5 +5 тепло 1021.7 1020.3
15 18.01 ЮЗ 5
{11}
10 км 9/9 600 м
[Cu Sc]
+7.7 +0.3 59 +4 +4 тепло 1021.8 1020.5 +8.5
18 18.01 Ю 5
{11}
10 км 9/9 600 м
[Cu Sc]
+7.8 +0.7 61 +4 +4 тепло 1021.6 1020.3
21 18.01 Ю 5
{11}
10 км 9/9 600 м
[Sc]
+7.9 +0.8 61 +4 +4 тепло 1021.7 1020.3
00 19.01 Ю 5
{10}
10 км 9/9 600 м
[Sc]
+8.1 +1.0 61 +5 +5 тепло 1020.7 1019.3
03 19.01 Ю 5
{10}
10 км 9/9 600 м
[Sc]
+8.2 +1.3 62 +5 +5 тепло 1020.0 1018.6 +7.6
06 19.01 Ю 4
{10}
20 км 10/10 600 м
[Sc]
+8.4 +1.9 64 +6 +6 тепло 1020.0 1018.7
09 19.01 Ю 4 20 км 10/10 600 м
[Sc]
+8.7 +2.8 66 +6 +6 тепло 1020.4 1019.1
12 19.01 Ю 4
{10}
20 км 10/10 600 м
[Sc]
+8.9 +4.1 72 +6 +6 тепло 1019.6 1018.3

 

Местоположение метеостанции Новороссийск (Краснодарский край, Россия): широта 44.72 долгота 37.85 высота над уровнем моря 3 м.

В архиве по умолчанию представлена погода в Новороссийске за последнюю неделю. Архивные данные за месяц целиком и за предыдущие месяцы, начиная с января 2011 года, Вы можете получить, выбрав интересующий диапазон дат из раскрывающегося списка и нажав кнопку "Ввод!".


*Определитесь, кто Вы:
робот инопланетянин человек

Внимание! Время в таблицах - всемирное. Для получения местного времени необходимо прибавить поправку, которая равна 3 ч.

Смотрите также архив погоды в соседних городах и на ближайших метеорологических станциях:

Погода в Геленджике (Краснодарский край, Россия) (25 км)
Погода в Крымске (Краснодарский край, Россия) (25 км)
Погода в Анапе (Краснодарский край, Россия) (48 км)
Погода в Славянске-на-Кубани (Краснодарский край, Россия) (66 км)
Погода в Темрюке (Краснодарский край, Россия) (76 км)
Погода в Джубге (Краснодарский край, Россия) (81 км)
Погода в Горячем Ключе (Краснодарский край, Россия) (99 км)
Погода в Краснодаре (Краснодарский край, Россия) (100 км)
Погода в Тамани (Краснодарский край, Россия) (105 км)
Погода в Туапсе (Краснодарский край, Россия) (119 км)

Пояснения к столбцам:

Ветер - указаны скорость ветра в м/с - средняя за 10 мин, порывы в срок и между сроками (в фигурных скобках) и направление, откуда дует ветер: С - северный, СВ - северо-восточный, В - восточный, ЮВ - юго-восточный, Ю - южный, ЮЗ - юго-западный, З - западный, СЗ - северо-западный.
Видимость - горизонтальная дальность видимости в метрах или километрах. При видимости от 1 до 10 км при отсутствии осадков обычно наблюдается дымка, при ухудшении видимости до 1 км и менее - туман. В сухую погоду видимость может ухудшаться дымом, пылью или мглою.
Явления - указаны атмосферные явления, наблюдавшиеся в срок или в последний час перед сроком; фигурными скобками обозначены явления, наблюдавшиеся между сроками (за 1-3 часа до срока); квадратными скобками обозначены град или гололедные отложения с указанием их диаметра в мм.
Облачность - указаны через наклонную черту общая и нижняя облачность в баллах и высота нижней границы облаков в метрах; квадратными скобками обозначены формы облаков: Ci - перистые, Cs - перисто-слоистые, Cc - перисто-кучевые, Ac - высококучевые, As - высокослоистые, Sc - слоисто-кучевые, Ns - слоисто-дождевые, Cu - кучевые, Cb - кучево-дождевые. Подробнее классификацию облаков см. в Атласе облаков (PDF).
T - Температура воздуха - температура, измеренная на высоте 2 м над землей.
Td - Температура точки росы - температура, при понижении до которой содержащийся в воздухе водяной пар достигнет насыщения.
f - Относительная влажность воздуха - влажноcть воздуха, измеренная на высоте 2 м над землей.
Te - Эффективная температура - температура, которую ощущает одетый по сезону человек в тени. Характеристика душности погоды. При расчете учитывается влияние влажности воздуха и скорости ветра на теплоощущения человека.
Tes - Эффективная температура на солнце - температура, которую ощущает человек, с поправкой на солнечный нагрев. Характеристика знойности погоды. Зависит от высоты солнца над горизонтом, облачности и скорости ветра. Ночью, в пасмурную погоду, а также при ветре 12 м/с и более поправка равна нулю.
P - Атмосферное давление - приведенное к уровню моря атмосферное давление.
Po - Атмосферное давление - измеренное на уровне метеостанции атмосферное давление.
Tmin - Минимальная температура - минимум температуры воздуха на высоте 2 м над землей.
Tmax - Максимальная температура - максимум температуры воздуха на высоте 2 м над землей.
R - Количество осадков - Количество выпавших осадков за период времени, мм. При наведении курсора мыши на число - период времени, за который выпало указанное количество осадков.
R24 - Количество осадков - Количество выпавших осадков за 24 часа, мм.
S - Снежный покров - Высота снежного покрова, см. При наведении курсора мыши на число - состояние снежного покрова и степень покрытия местности в баллах.